Weather History for PASK - April, 2013

Change the Weather History Date:

Saturday, April 6, 2013

  Actual Average Record
Temperature  
Mean Temperature -4 °F -  
Max Temperature 1 °F 17 °F 35 °F (1997)
Min Temperature -11 °F 4 °F -20 °F (2005)
Degree Days  
Heating Degree Days 69    
Moisture  
Dew Point -12 °F    
Average Humidity 61    
Maximum Humidity 78    
Minimum Humidity 47    
Precipitation  
Precipitation 0.00 in - - ()
Sea Level Pressure  
Sea Level Pressure 30.03 in    
Wind  
Wind Speed 18 mph (NNE)    
Max Wind Speed 26 mph    
Max Gust Speed 32 mph    
Visibility 10 miles    
Events      
Averages and records for this station are not official NWS values.
T = Trace of Precipitation, MM = Missing Value Source: NWS Daily Summary

Daily Weather History Graph

Daily Weather History Graph

Search for Another Location

Airport or City:

Trip Planner

Search our weather history database for the weather conditions in past years. The results will help you decide how hot, cold, wet, or windy it might be!

Date:

Astronomy

Apr. 06, 2013 Rise Set
Actual Time 7:30 AM AKDT 9:55 PM AKDT
Civil Twilight 6:32 AM AKDT 10:54 PM AKDT
Nautical Twilight 5:11 AM AKDT 12:17 AM AKDT
Astronomical Twilight 3:14 AM AKDT 2:09 AM AKDT
Moon 6:45 AM AKDT (4/6) 5:23 PM AKDT (4/6)
Length of Visible Light 16h 21m
Length of Day
14h 25m
Waning Crescent, 14% of the Moon is Illuminated
Apr 6
Waning Crescent
Apr 10
New
Apr 18
First Quarter
Apr 25
Full
May 2
Last Quarter

Hourly Weather History & Observations

Time (AKDT) Temp. Windchill Dew Point Humidity Pressure Visibility Wind Dir Wind Speed Gust Speed Precip Events Conditions
12:16 AM 1.4 °F -21.9 °F -7.6 °F 66% 30.08 in 10.0 mi NE 24.2 mph 31.1 mph N/A   Clear
12:36 AM 1.4 °F -21.4 °F -9.4 °F 61% 30.08 in 10.0 mi NE 23.0 mph 27.6 mph N/A   Clear
12:56 AM 1.4 °F -21.9 °F -9.4 °F 61% 30.08 in 10.0 mi NE 24.2 mph 28.8 mph N/A   Clear
1:16 AM -0.4 °F -23.3 °F -9.4 °F 66% 30.07 in 10.0 mi NE 21.9 mph - N/A   Clear
1:36 AM -0.4 °F -24.3 °F -9.4 °F 66% 30.06 in 10.0 mi NE 24.2 mph 28.8 mph N/A   Clear
1:56 AM -0.4 °F -22.8 °F -9.4 °F 66% 30.06 in 10.0 mi NE 20.7 mph 28.8 mph N/A   Clear
2:16 AM -0.4 °F -22.3 °F -11.2 °F 60% 30.07 in 10.0 mi NE 19.6 mph - N/A   Clear
2:36 AM -0.4 °F -22.8 °F -11.2 °F 60% 30.06 in 10.0 mi NE 20.7 mph - N/A   Scattered Clouds
2:56 AM -0.4 °F -19.9 °F -9.4 °F 66% 30.08 in 10.0 mi NE 15.0 mph - N/A   Mostly Cloudy
3:16 AM -0.4 °F -21.7 °F -11.2 °F 60% 30.07 in 10.0 mi NE 18.4 mph - N/A   Mostly Cloudy
3:36 AM -0.4 °F -22.3 °F -11.2 °F 60% 30.06 in 10.0 mi NE 19.6 mph 27.6 mph N/A   Overcast
3:56 AM -0.4 °F -23.3 °F -11.2 °F 60% 30.06 in 10.0 mi NE 21.9 mph 27.6 mph N/A   Overcast
4:16 AM -0.4 °F -20.5 °F -11.2 °F 60% 30.06 in 10.0 mi NE 16.1 mph - N/A   Overcast
4:36 AM -0.4 °F -19.9 °F - N/A% 30.06 in 10.0 mi NE 15.0 mph - N/A   Overcast
4:56 AM -0.4 °F -22.3 °F -11.2 °F 60% 30.06 in 10.0 mi NE 19.6 mph - N/A   Overcast
5:16 AM -2.2 °F -25.2 °F -11.2 °F 66% 30.05 in 10.0 mi NE 20.7 mph - N/A   Overcast
5:36 AM -2.2 °F -26.2 °F -11.2 °F 66% 30.05 in 10.0 mi NE 23.0 mph - N/A   Overcast
5:56 AM -2.2 °F -26.2 °F -11.2 °F 66% 30.05 in 10.0 mi NE 23.0 mph - N/A   Overcast
6:16 AM -2.2 °F -25.7 °F -11.2 °F 66% 30.05 in 10.0 mi NE 21.9 mph - N/A   Overcast
6:36 AM -2.2 °F -25.7 °F -13.0 °F 60% 30.05 in 10.0 mi NE 21.9 mph 26.5 mph N/A   Overcast
6:56 AM -2.2 °F -27.1 °F -13.0 °F 60% 30.04 in 10.0 mi NNE 25.3 mph - N/A   Overcast
7:16 AM -2.2 °F -26.7 °F -13.0 °F 60% 30.04 in 9.0 mi NNE 24.2 mph 32.2 mph N/A   Overcast
7:36 AM -2.2 °F -27.6 °F -14.8 °F 55% 30.05 in 8.0 mi NNE 26.5 mph 31.1 mph N/A   Overcast
7:56 AM -2.2 °F -23.5 °F -14.8 °F 55% 30.04 in 9.0 mi NNE 17.3 mph 29.9 mph N/A   Overcast
8:16 AM -2.2 °F -26.2 °F -16.6 °F 50% 30.04 in 8.0 mi NE 23.0 mph 31.1 mph N/A   Overcast
8:36 AM -4.0 °F -28.1 °F -16.6 °F 55% 30.04 in 10.0 mi NE 21.9 mph - N/A   Overcast
8:56 AM -5.8 °F -29.4 °F -16.6 °F 60% 30.04 in 10.0 mi NE 19.6 mph 24.2 mph N/A   Overcast
9:16 AM -5.8 °F -28.2 °F -16.6 °F 60% 30.05 in 10.0 mi NE 17.3 mph - N/A   Overcast
9:36 AM -5.8 °F -27.5 °F -16.6 °F 60% 30.04 in 10.0 mi NE 16.1 mph - N/A   Scattered Clouds
9:56 AM -4.0 °F -26.4 °F -16.6 °F 55% 30.05 in 10.0 mi NE 18.4 mph - N/A   Partly Cloudy
10:16 AM -4.0 °F -26.4 °F -14.8 °F 60% 30.05 in 10.0 mi NE 18.4 mph - N/A   Partly Cloudy
10:36 AM -2.2 °F -22.9 °F -14.8 °F 55% 30.05 in 10.0 mi NE 16.1 mph 21.9 mph N/A   Partly Cloudy
10:56 AM -2.2 °F -24.1 °F -14.8 °F 55% 30.05 in 10.0 mi NE 18.4 mph 23.0 mph N/A   Clear
11:16 AM -2.2 °F -25.2 °F -14.8 °F 55% 30.05 in 10.0 mi NE 20.7 mph - N/A   Clear
11:36 AM -2.2 °F -24.1 °F -14.8 °F 55% 30.05 in 10.0 mi NE 18.4 mph - N/A   Clear
11:56 AM -2.2 °F -24.1 °F -13.0 °F 60% 30.05 in 10.0 mi NE 18.4 mph - N/A   Clear
12:16 PM -0.4 °F -20.5 °F -13.0 °F 55% 30.05 in 10.0 mi NE 16.1 mph - N/A   Clear
12:36 PM -0.4 °F -19.9 °F -13.0 °F 55% 30.06 in 10.0 mi NE 15.0 mph - N/A   Clear
12:56 PM -0.4 °F -20.5 °F -13.0 °F 55% 30.05 in 10.0 mi NNE 16.1 mph - N/A   Clear
1:16 PM -0.4 °F -19.2 °F -11.2 °F 60% 30.05 in 10.0 mi NE 13.8 mph - N/A   Clear
1:36 PM 1.4 °F -17.6 °F -13.0 °F 51% 30.05 in 10.0 mi NE 15.0 mph - N/A   Clear
1:56 PM 1.4 °F -13.5 °F -11.2 °F 56% 30.05 in 10.0 mi NNE 9.2 mph - N/A   Clear
2:16 PM 1.4 °F -15.3 °F -13.0 °F 51% 30.05 in 10.0 mi North 11.5 mph - N/A   Clear
2:36 PM 1.4 °F -12.5 °F -14.8 °F 47% 30.05 in 10.0 mi North 8.1 mph - N/A   Clear
2:56 PM 1.4 °F -9.9 °F -11.2 °F 56% 30.05 in 10.0 mi West 5.8 mph - N/A   Clear
3:16 PM 1.4 °F -9.9 °F -9.4 °F 61% 30.04 in 10.0 mi West 5.8 mph - N/A   Clear
3:36 PM -0.4 °F -14.7 °F - N/A% 30.04 in 10.0 mi West 8.1 mph - N/A   Clear
3:56 PM -0.4 °F -14.7 °F -11.2 °F 60% 30.03 in 10.0 mi West 8.1 mph - N/A   Clear
4:16 PM -0.4 °F -16.7 °F -9.4 °F 66% 30.02 in 10.0 mi West 10.4 mph - N/A   Clear
4:36 PM -0.4 °F -14.7 °F -9.4 °F 66% 30.02 in 10.0 mi West 8.1 mph - N/A   Clear
4:56 PM -0.4 °F -15.7 °F -9.4 °F 66% 30.01 in 10.0 mi WSW 9.2 mph - N/A   Clear
5:16 PM 1.4 °F -15.3 °F -9.4 °F 61% 30.01 in 10.0 mi West 11.5 mph - N/A   Clear
5:36 PM -0.4 °F -16.7 °F -9.4 °F 66% 30.01 in 10.0 mi West 10.4 mph - N/A   Clear
5:56 PM 1.4 °F -11.3 °F -9.4 °F 61% 30.01 in 10.0 mi West 6.9 mph - N/A   Clear
6:16 PM 1.4 °F -12.5 °F -9.4 °F 61% 30.01 in 10.0 mi West 8.1 mph - N/A   Clear
6:36 PM 1.4 °F -11.3 °F -9.4 °F 61% 30.00 in 10.0 mi West 6.9 mph - N/A   Clear
6:56 PM 1.4 °F -11.3 °F -9.4 °F 61% 30.00 in 10.0 mi West 6.9 mph - N/A   Clear
7:16 PM 1.4 °F -9.9 °F -9.4 °F 61% 30.00 in 10.0 mi WSW 5.8 mph - N/A   Clear
7:36 PM 1.4 °F -8.3 °F -9.4 °F 61% 29.99 in 10.0 mi WSW 4.6 mph - N/A   Clear
7:56 PM -0.4 °F -13.4 °F -9.4 °F 66% 29.99 in 10.0 mi SW 6.9 mph - N/A   Clear
8:16 PM -0.4 °F -12.0 °F -9.4 °F 66% 29.99 in 10.0 mi WSW 5.8 mph - N/A   Clear
8:36 PM -2.2 °F -12.5 °F -7.6 °F 78% 29.98 in 10.0 mi WSW 4.6 mph - N/A   Clear
8:56 PM -2.2 °F -12.5 °F -11.2 °F 66% 29.98 in 10.0 mi West 4.6 mph - N/A   Clear
9:16 PM -2.2 °F -12.5 °F -11.2 °F 66% 29.99 in 10.0 mi WSW 4.6 mph - N/A   Clear
9:36 PM -4.0 °F -14.6 °F -14.8 °F 60% 29.99 in 10.0 mi WNW 4.6 mph - N/A   Clear
10:16 PM -4.0 °F -16.3 °F -14.8 °F 60% 29.98 in 10.0 mi NNE 5.8 mph - N/A   Clear
10:36 PM -5.8 °F -18.4 °F -18.4 °F 55% 29.98 in 10.0 mi NE 5.8 mph - N/A   Clear
10:56 PM -7.6 °F -22.1 °F -16.6 °F 65% 29.99 in 10.0 mi NNE 6.9 mph - N/A   Clear
11:16 PM -7.6 °F -22.1 °F -16.6 °F 65% 29.97 in 10.0 mi NNE 6.9 mph - N/A   Clear
11:36 PM -9.4 °F - -20.2 °F 59% 29.99 in 10.0 mi Calm Calm - N/A   Clear
11:56 PM -11.2 °F -26.4 °F -16.6 °F 77% 29.99 in 10.0 mi NE 6.9 mph - N/A   Clear